Deer Park, WA
on Tuesday, December 25, 2012

Tuesday
Previous Day Next Day
Daily Summary
 ActualAverageRecord
Temperature
Mean Temperature °F 24°F  
Max Temperature 34°F 31°F 45°F (2005)
Min Temperature 23°F 18°F 3°F (2008)
Degree Days
Heating Degree Days 36 40  
Month to date heating degree days 804 983  
Since 1 July heating degree days 2541 2986  
Cooling Degree Days 0 0  
Month to date cooling degree days 0 0  
Year to date cooling degree days 232 187  
Moisture
Dew Point 28°F   
Average Humidity 91    
Maximum Humidity 100    
Minimum Humidity 82    
Precipitation
Precipitation 0.01 in 0.10 in 0.26 in (2006)
Month to date precipitation 2.44 2.30  
Year to date precipitation 26.55 21.69  
Wind
Wind Speed 5 mph   
Max Wind Speed 13 mph   
Max Gust Speed 15 mph   
Visibility 7 miles   
Events Fog , Snow   

Key: T is trace of precipitation, MM is missing value
Source: NWS Daily Summary
Time(PST)TemperatureDew PointHumidity Pressure Visibility Wind DirectionWind SpeedGust SpeedPrecipitationEvents Conditions
12:53 AM 30.0°F 28.9°F 96% 30.21 in 2.0 miles Calm Calm - 0.00 in Snow Light Snow
1:14 AM 30.2°F 28.4°F 93% 30.14 in 1.0 miles Calm Calm - 0.00 in   Mist
1:25 AM 30.2°F 30.2°F 100% 30.13 in 0.8 miles Calm Calm - 0.00 in   Mist
1:53 AM 30.0°F 30.0°F 100% 30.20 in 0.5 miles Calm Calm - 0.00 in Fog Light Freezing Fog
2:17 AM 30.2°F 30.2°F 100% 30.13 in 1.8 miles Calm Calm - N/A   Overcast
2:24 AM 30.2°F 30.2°F 100% 30.12 in 3.0 miles Calm Calm - N/A   Overcast
2:44 AM 30.2°F 28.4°F 93% 30.12 in 6.0 miles Calm Calm - N/A   Overcast
2:53 AM 30.0°F 30.0°F 100% 30.18 in 5.0 miles Calm Calm - N/A   Overcast
3:37 AM 30.2°F 28.4°F 93% 30.11 in 7.0 miles Calm Calm - N/A   Overcast
3:53 AM 30.0°F 30.0°F 100% 30.18 in 7.0 miles Calm Calm - N/A   Overcast
4:53 AM 30.0°F 28.9°F 96% 30.15 in 8.0 miles Calm Calm - N/A   Overcast
5:04 AM 30.2°F 28.4°F 93% 30.08 in 8.0 miles Calm Calm - N/A   Overcast
5:11 AM 30.2°F 28.4°F 93% 30.08 in 8.0 miles NNE 3.5 mph - N/A   Overcast
5:37 AM 28.4°F 26.6°F 93% 30.07 in 10.0 miles NNE 3.5 mph - N/A   Overcast
5:53 AM 27.0°F 26.1°F 96% 30.13 in 9.0 miles NNE 3.5 mph - N/A   Overcast
6:17 AM 24.8°F 24.8°F 100% 30.05 in 2.5 miles NE 4.6 mph - N/A   Mostly Cloudy
6:22 AM 24.8°F 24.8°F 100% 30.05 in 0.8 miles NE 4.6 mph - N/A   Mostly Cloudy
6:35 AM 26.6°F 24.8°F 93% 30.04 in 2.5 miles NNE 4.6 mph - N/A   Overcast
6:42 AM 28.4°F 26.6°F 93% 30.04 in 9.0 miles NNE 4.6 mph - N/A   Overcast
6:53 AM 28.0°F 27.0°F 96% 30.09 in 10.0 miles NNE 6.9 mph - N/A   Overcast
7:53 AM 25.0°F 24.1°F 96% 30.09 in 10.0 miles NNE 6.9 mph - N/A   Clear
8:53 AM 30.0°F 27.0°F 88% 30.07 in 10.0 miles NE 8.1 mph - N/A   Clear
9:53 AM 30.9°F 28.0°F 89% 30.05 in 10.0 miles NE 11.5 mph - N/A   Clear
10:53 AM 32.0°F 28.0°F 85% 30.01 in 10.0 miles NE 10.4 mph - N/A   Mostly Cloudy
11:53 AM 33.1°F 28.0°F 82% 29.97 in 10.0 miles NE 9.2 mph - N/A   Mostly Cloudy
12:53 PM 34.0°F 28.9°F 82% 29.93 in 10.0 miles NE 11.5 mph - N/A   Mostly Cloudy
1:53 PM 33.1°F 28.0°F 82% 29.91 in 10.0 miles NE 10.4 mph - N/A   Overcast
2:53 PM 33.1°F 28.0°F 82% 29.91 in 10.0 miles NNE 4.6 mph - N/A   Overcast
3:53 PM 30.9°F 28.0°F 89% 29.90 in 10.0 miles NNE 8.1 mph - N/A   Overcast
4:53 PM 30.9°F 27.0°F 85% 29.89 in 10.0 miles NNE 6.9 mph - N/A   Overcast
5:53 PM 30.9°F 27.0°F 85% 29.89 in 10.0 miles NE 5.8 mph - N/A   Overcast
6:53 PM 30.9°F 27.0°F 85% 29.89 in 10.0 miles Calm Calm - N/A   Overcast
7:53 PM 28.9°F 27.0°F 92% 29.88 in 10.0 miles Calm Calm - N/A   Overcast
8:53 PM 28.9°F 27.0°F 92% 29.87 in 9.0 miles Calm Calm - 0.00 in Snow Light Snow
9:20 PM 28.4°F 26.6°F 93% 29.81 in 2.5 miles NNE 4.6 mph - 0.00 in Snow Light Snow
9:36 PM 30.2°F 28.4°F 93% 29.81 in 3.0 miles NNE 4.6 mph - 0.00 in Snow Light Snow
9:53 PM 30.0°F 28.0°F 92% 29.87 in 9.0 miles NNE 4.6 mph - 0.00 in   Overcast
10:07 PM 30.2°F 28.4°F 93% 29.81 in 10.0 miles NNE 5.8 mph - N/A   Overcast
10:53 PM 30.0°F 27.0°F 88% 29.86 in 10.0 miles NNE 5.8 mph - 0.01 in   Overcast
11:53 PM 30.0°F 27.0°F 88% 29.85 in 10.0 miles NNE 6.9 mph - N/A   Overcast
Moon Phase
Dec. 25 Dec. 28 Jan. 04 Jan. 11 Jan. 18
Sunrise:07:38 AM (PST) Moon Rise:02:16 PM (PST)12/25
Sunset:04:01 PM (PST) Moon Set:05:11 AM (PST)12/25

Copyright © 2014 The Weather Underground, Inc.